Home > Time Zones > World Clock > Weather > Cuba > Havana > Past weeks

Flag for Cuba Weather past 2 weeks in Havana, Cuba

Now
77 °F

Passing clouds.


Feels Like: 79 °F
Forecast: 72 / 78 °F
Wind: 10 mph from Southwest

Location: Aeropuerto Jose Marti - Rancho-Boyeros - Habana

Current Time: Mar 27, 2015 at 10:26:15 PM

Latest Report: Mar 27, 2015 at 9:55 PM


Visibility: 6 mi

Pressure: 30.01 "Hg

Humidity: 74%

Dew point: 68 °F

Location of HavanaLocation

Historic Weather in Havana — Graph

°F

Havana temperature yesterday

Maximum temperature yesterday: 90 °F (at 1:55 PM)
Minimum temperature yesterday: 45 °F (at 7:55 AM)
Average temperature yesterday: 75 °F

Past Weeks' High & Low Weather Summary

 TemperatureHumidityPressure
High90 °F (Mar 26, 1:55 PM)100% (Mar 16, 2:55 AM)30.18 "Hg (Mar 16, 2:55 AM)
Low45 °F (Mar 16, 2:55 AM)27% (Mar 23, 1:55 PM)29.92 "Hg (Mar 27, 2:55 PM)
Average75 °F69%30.06 "Hg
* Reported Mar 12 8:55 PM — Mar 27 8:55 PM, Havana, Weather by CustomWeather, © 2015

Note: Actual official high and low records may vary slightly from our data, if they occured in-between our weather recording intervals... More about our weather records

Advertising

Havana weather history for previous 24 hours

 ConditionsComfort  
Time TempWeatherWind HumidityBarometerVisibility
8:55 PM
Fri, Mar 27
79 °FPassing clouds.7 mph70%29.98 "Hg6 mi
7:55 PM79 °FPartly sunny.10 mph65%29.95 "Hg6 mi
6:55 PM82 °FPartly sunny.14 mph58%29.95 "Hg6 mi
5:55 PM84 °FPartly sunny.16 mph58%29.92 "Hg6 mi
4:55 PM84 °FPartly sunny.17 mph55%29.92 "Hg6 mi
3:55 PM86 °FPartly sunny.16 mph49%29.92 "HgN/A
2:55 PM88 °FPartly sunny.17 mph43%29.92 "HgN/A
1:55 PM88 °FPartly sunny.15 mph49%29.98 "Hg6 mi
12:55 PM88 °FScattered clouds.16 mph49%29.98 "HgN/A
11:55 AM88 °FPassing clouds.15 mph46%30.01 "HgN/A
10:55 AM86 °FScattered clouds.12 mph49%30.01 "HgN/A
9:55 AM81 °FPassing clouds.12 mph70%30.01 "Hg6 mi
8:55 AM77 °FPassing clouds.5 mph79%29.98 "Hg6 mi
7:55 AM68 °FPassing clouds.1 mph88%29.98 "Hg6 mi
6:55 AM70 °FPassing clouds.2 mph88%29.98 "Hg6 mi
5:55 AM70 °FPassing clouds.No wind88%29.95 "Hg6 mi
4:55 AM70 °FPassing clouds.6 mph88%29.95 "Hg6 mi
3:55 AM70 °FPassing clouds.5 mph88%29.98 "Hg6 mi
2:55 AM70 °FPassing clouds.6 mph88%29.98 "Hg6 mi
1:55 AM72 °FPassing clouds.5 mph83%29.98 "Hg6 mi
12:55 AM73 °FPassing clouds.5 mph83%30.01 "Hg6 mi
11:55 PM
Thu, Mar 26
73 °FPassing clouds.5 mph78%30.01 "Hg6 mi
10:55 PM75 °FPassing clouds.5 mph78%30.01 "Hg6 mi
Weather by CustomWeather, © 2015

See weather overviewHow to use our weather pages